"Pseudo-MPEC" for P11XzIP

Created 2024 Sep 7 16:22:11 UT using Find_Orb

Click here for an explanation of pseudo-MPECs

 
 Astrometry: 
     P11XzIP* C2024 08 27.54336300 13 21.339-01 35 43.41   ~8RG7 21.37wXNEOCPF51
     P11XzIP  C2024 08 27.55386500 13 20.082-01 35 58.82   ~8RG7 21.69wXNEOCPF51
     P11XzIP  C2024 08 27.57489900 13 17.668-01 36 27.01   ~8RG7 21.83wXNEOCPF51

Station data:
(F51) Pan-STARRS 1, Haleakala  (N20.707234 W156.255910)  US/Hawaii.
   Observers J. Bulger, T. Lowe, A. Schultz, M. Willman. Measurers K.
   Chambers, S. Chastel, T. de Boer, L. Denneau, J. Fairlamb, H. Flewelling,
   M. Huber, C.-C. Lin, E. Magnier, Y. Ramanjooloo, R. Wainscoat, R. Weryk.
   1.8-m Ritchey-Chrétien + CCD.

Orbital elements:  P11XzIP
   Perihelion 2024 Dec 28.36791 +/- 172 TT =  8:49:47 (JD 2460672.86791)
Epoch 2024 Aug 28.0 TT = JDT 2460550.5   Earth MOID: 0.1908      AutoNEOCP
M 269.15879839 +/- 90               (J2000 ecliptic)
n   0.74236129 +/- 0.42             Peri.  350.18508 +/- 60
a   1.20797840 +/- 0.456            Node   165.59707 +/- 42
e   0.8929008 +/- 0.225             Incl.   30.20378 +/- 56
P   1.328/484.930d         H 19.39  G  0.15   U 12.2  SR
q 0.12937349 +/- 0.754    Q 2.28658331 +/- 12.3
From 3 observations 2024 Aug. 27 (45.4 min); mean residual 0".34
Residuals in arcseconds: 
240827 F51  .22+  .38+    240827 F51  .33-  .57-    240827 F51  .11+  .19+    

Ephemerides (geocentric):
Date (UTC) HH   RA             Dec           delta  r     elong  mag " sig PA
---- --------  ------------   ------------  ------ ------ -----  --- --------
2024 09 07 16  23 47 20.100   -06 37 57.87  .82486 1.8249 169.6 20.7  38d  91
2024 09 07 17  23 47 13.076   -06 39 15.92  .82446 1.8246 169.6 20.7  38d  91
2024 09 07 18  23 47 06.043   -06 40 34.05  .82406 1.8243 169.7 20.7  38d  91
2024 09 07 19  23 46 59.002   -06 41 52.24  .82367 1.8240 169.7 20.7  38d  91
2024 09 07 20  23 46 51.952   -06 43 10.50  .82327 1.8237 169.8 20.7  38d  91
2024 09 07 21  23 46 44.893   -06 44 28.82  .82288 1.8234 169.9 20.7  38d  91
2024 09 07 22  23 46 37.826   -06 45 47.22  .82248 1.8230 169.9 20.7  38d  91
2024 09 07 23  23 46 30.750   -06 47 05.68  .82209 1.8227 170.0 20.7  38d  91
2024 09 08 00  23 46 23.666   -06 48 24.20  .82169 1.8224 170.1 20.7  38d  91
2024 09 08 01  23 46 16.573   -06 49 42.79  .82130 1.8221 170.1 20.7  38d  91
2024 09 08 02  23 46 09.471   -06 51 01.45  .82091 1.8218 170.2 20.7  38d  91
2024 09 08 03  23 46 02.361   -06 52 20.18  .82052 1.8214 170.2 20.7  39d  91
2024 09 08 04  23 45 55.242   -06 53 38.97  .82012 1.8211 170.3 20.7  39d  91
2024 09 08 05  23 45 48.114   -06 54 57.83  .81973 1.8208 170.4 20.7  39d  91
2024 09 08 06  23 45 40.978   -06 56 16.76  .81934 1.8205 170.4 20.7  39d  91
2024 09 08 07  23 45 33.834   -06 57 35.75  .81896 1.8202 170.5 20.7  39d  91
2024 09 08 08  23 45 26.680   -06 58 54.80  .81857 1.8199 170.5 20.7  39d  91
2024 09 08 09  23 45 19.518   -07 00 13.92  .81818 1.8195 170.6 20.7  39d  91
2024 09 08 10  23 45 12.348   -07 01 33.11  .81779 1.8192 170.7 20.7  39d  91
2024 09 08 11  23 45 05.169   -07 02 52.36  .81741 1.8189 170.7 20.7  39d  91
2024 09 08 12  23 44 57.981   -07 04 11.68  .81702 1.8186 170.8 20.7  39d  91
2024 09 08 13  23 44 50.785   -07 05 31.06  .81664 1.8183 170.8 20.7  39d  91
2024 09 08 14  23 44 43.580   -07 06 50.51  .81625 1.8179 170.9 20.7  39d  91
2024 09 08 15  23 44 36.367   -07 08 10.02  .81587 1.8176 171.0 20.7  39d  91
2024 09 08 16  23 44 29.145   -07 09 29.60  .81549 1.8173 171.0 20.7  39d  91
2024 09 08 17  23 44 21.915   -07 10 49.24  .81510 1.8170 171.1 20.7  39d  91
2024 09 08 18  23 44 14.676   -07 12 08.94  .81472 1.8167 171.1 20.7  39d  91
2024 09 08 19  23 44 07.428   -07 13 28.71  .81434 1.8164 171.2 20.7  39d  91
2024 09 08 20  23 44 00.172   -07 14 48.55  .81396 1.8160 171.3 20.7  39d  91
2024 09 08 21  23 43 52.908   -07 16 08.44  .81358 1.8157 171.3 20.6  39d  91
2024 09 08 22  23 43 45.635   -07 17 28.40  .81320 1.8154 171.4 20.6  39d  91
2024 09 08 23  23 43 38.353   -07 18 48.43  .81283 1.8151 171.4 20.6  40d  91
2024 09 09 00  23 43 31.063   -07 20 08.51  .81245 1.8147 171.5 20.6  40d  91
2024 09 09 01  23 43 23.765   -07 21 28.66  .81207 1.8144 171.5 20.6  40d  91
2024 09 09 02  23 43 16.458   -07 22 48.88  .81170 1.8141 171.6 20.6  40d  91
2024 09 09 03  23 43 09.142   -07 24 09.15  .81132 1.8138 171.7 20.6  40d  91
2024 09 09 04  23 43 01.818   -07 25 29.49  .81095 1.8135 171.7 20.6  40d  91
2024 09 09 05  23 42 54.486   -07 26 49.89  .81057 1.8131 171.8 20.6  40d  91
2024 09 09 06  23 42 47.145   -07 28 10.35  .81020 1.8128 171.8 20.6  40d  91
2024 09 09 07  23 42 39.796   -07 29 30.88  .80983 1.8125 171.9 20.6  40d  91
2024 09 09 08  23 42 32.438   -07 30 51.47  .80946 1.8122 171.9 20.6  40d  91
2024 09 09 09  23 42 25.071   -07 32 12.12  .80909 1.8119 172.0 20.6  40d  91
2024 09 09 10  23 42 17.697   -07 33 32.83  .80871 1.8115 172.0 20.6  40d  91
2024 09 09 11  23 42 10.314   -07 34 53.60  .80835 1.8112 172.1 20.6  40d  91
2024 09 09 12  23 42 02.922   -07 36 14.43  .80798 1.8109 172.1 20.6  40d  91
2024 09 09 13  23 41 55.522   -07 37 35.33  .80761 1.8106 172.2 20.6  40d  91
2024 09 09 14  23 41 48.114   -07 38 56.28  .80724 1.8102 172.2 20.6  40d  91
2024 09 09 15  23 41 40.697   -07 40 17.30  .80687 1.8099 172.3 20.6  40d  91